Вернуться в каталог

KUIPER-00226

АктивенСвязьLEO
NORAD 67785·PAYLOAD·🇺🇸 United States

Запущен Feb 12, 2026 с Guiana Space Centre

Loading…

Ближайшие Пролёты (ближайшие 24 часа)

TLE

СвежийSource: CelesTrak SupGP

Эпоха: Sep 14, 2026, 13:39 UTC

1 67785C 26030X   26257.56881944 -.00004461  00000+0 -57628-3 0  2575
2 67785  51.8992  70.3717 0002461 312.8472  75.7867 14.80491368    19

Отслеживайте KUIPER-00226 в реальном времени с AllMySat

Download on the App Store